ARIANE 5 R/B, 43059

Orbit data source: Space-Track

ARIANE 5 R/B, 43059 is space debris originally from a launch on Tue, 12 Dec 2017 UTC launched from the French Guiana (FRGUI). Debris objects in space refer to the collection of defunct objects orbiting the Earth. Examples of debris include non-operational satellites, rocket bodies, and fragments generated from explosions, collisions, or faulty payload assembly.

Loading next visibility...
Identifier
43059, 2017-079E
Orbit
Active
Country
Flag of FRFR
Related business
Manufacturer
ADS/Bremen
Mission
Spacecraft
Bus & Motor
EPS+, AESTUS
Mass
3,300 kg wet, 3,300 kg dry
Launch date (UTC)
2017-12-12 (8 years ago)
Launch vehicle
Unknown
Launch site
French Guiana (FRGUI)
Object type
Payload
Rocket body
Debris
Shape & HBR
Cone + Cyl, 2.7 m
Radar Cross Section
32.805 m², Large (>1 m²)

Expand to show TLE details & history
Last TLE update: 23 hours ago

TLE from 23 hours ago
0 ARIANE 5 R/B
1 43059U 17079E   25257.26877039  .00000031  00000-0  00000-0 0  9992
2 43059  55.1869 226.3897 0002343 274.1080  85.8394  1.73189185 49078
Epoch: 2025-09-14T06:27Z
TLE epoch observation values (Epoch: 2025-09-14T06:27:01.761Z)
Latitude
-0.00003°
Longitude
136.13373°
Altitude
22,911.77 km
Speed
3.689 km/s
True Right ascension
15h 05m 31s
True Declination
0° 00' 00"
Sunlit
Object was in daylight at epoch
Visualization orbit readout
Latitude
Unknown
Longitude
Unknown
Altitude
Unknown
Speed
Unknown
Apparent Right ascension
Unknown
Apparent Declination
Unknown
Sunlit
N/A
Visualization observer readout
Local Sidereal Time
21:36:01
Azimuth
Unknown
Elevation
Unknown
Doppler factor
Unknown
Orbital elements
Apogee altitude
22,918.859 km
Perigee altitude
22,905.134 km
Semi-major axis
29,290.133 km
Eccentricity
0.00023
Inclination
55.1869°
RAAN
226.3897°
Arg. of periapsis
274.108°
True anomaly
85.86618°
Mean anomaly
85.8394°
Eccentric anomaly
85.85279°
Mean motion
0.43297 °/min
Orbital period
831.46 mins
BSTAR
0
Loading maneuver chart data...
Computing Atmospheric mass density...
Loading historical data...
Loading historical data...
Loading historical data...
Loading historical data...
Loading historical data...
Loading historical data...
Loading historical data...
Other satellites on launch #79 in the year 2017 (2017-12-12 UTC)

Documentation

Showing up to 5 results
|